Showing default

FLOCK 4BE 5, 60559

Orbit data source: Space-Track

FLOCK 4BE 5, 60559 is a payload satellite owned by Planet (US) in SSO that was launched on Fri, 16 Aug 2024 UTC via an FALCON 9 launch vehicle from the Air Force Western Test Range (AFWTR). Payload-class satellites include a variety of spacecraft equipped with specific instruments for various scientific and technological missions. These include communications satellites like Starlink; space stations such as the ISS; scientific satellites like the Hubble; Earth observation satellites from companies like Planet Labs, Umbra, and HawkEye 360; GPS; miniature CubeSats for education and research; and military/defense satellites.

Loading next visibility...
Identifier
60559, 2024-149CV
Orbit
SSO
Country
Flag of USUS
Related business
Manufacturer
Planet
Mission
Operational Commercial Imaging
Bus & Motor
CUBESAT 3U, Unknown motor
Mass
5.7 kg wet, 5.7 kg dry
Launch date (UTC)
2024-08-16 (1 year ago)
Launch vehicle
FALCON 9
Launch site
Air Force Western Test Range (AFWTR)
Object type
Payload
Rocket body
Debris
Shape & HBR
Box + 2 Pan, 1.0 m
Radar Cross Section
0.072 m², Medium (>0.1 m² and < 1m²)

Expand to show TLE details & history
Last TLE update: 15 hours ago

TLE from 15 hours ago
0 FLOCK 4BE 5
1 60559U 24149CV  25297.20003730  .00018695  00000-0  62614-3 0  9996
2 60559  97.4059  15.2087 0004502  73.8255 286.3481 15.30979696 66059
Epoch: 2025-10-24T04:48Z
TLE epoch observation values (Epoch: 2025-10-24T04:48:03.222Z)
Latitude
-0.00007°
Longitude
-89.65307°
Altitude
475.126 km
Speed
7.629 km/s
True Right ascension
01h 00m 50s
True Declination
0° 00' 00"
Sunlit
Object was in full shadow at epoch
Visualization orbit readout
Latitude
Unknown
Longitude
Unknown
Altitude
Unknown
Speed
Unknown
Apparent Right ascension
Unknown
Apparent Declination
Unknown
Sunlit
N/A
Visualization observer readout
Local Sidereal Time
14:44:44
Azimuth
Unknown
Elevation
Unknown
Doppler factor
Unknown
Orbital elements
Apogee altitude
472.922 km
Perigee altitude
466.756 km
Semi-major axis
6,847.976 km
Eccentricity
0.00045
Inclination
97.4059°
RAAN
15.2087°
Arg. of periapsis
73.8255°
True anomaly
286.29859°
Mean anomaly
286.3481°
Eccentric anomaly
286.32335°
Mean motion
3.83001 °/min
Orbital period
93.99 mins
BSTAR
0.00062614
Loading maneuver chart data...
Computing Atmospheric mass density...
Loading historical data...
Loading historical data...
Loading historical data...
Loading historical data...
Loading historical data...
Loading historical data...
Loading historical data...

Documentation

Showing up to 5 results
|